Location: Croisilles
(50.1998°N, 2.8793°E)
Time: 03:14:16
(UTC+00:00)

ATLAS 2AS CENTAUR R/B - Pass Details

Date: 21 January 2021
Orbit: 947 x 1265 km, 63.7° (Epoch: 13 February)

Event Time Altitude Azimuth Distance (km) Brightness Sun altitude
Rises 17:23:48 0° 243° (WSW) 4,211 8.0 -9.5°
Reaches altitude 10° 17:26:42 10° 248° (WSW) 3,250 6.9 -9.9°
Maximum altitude 17:34:26 54° 324° (NW) 1,490 3.6 -11.1°
Drops below altitude 10° 17:41:58 10° 42° (NE) 3,164 4.7 -12.3°
Enters shadow 17:42:08 - 42° (NE) 3,218 4.7 -12.3°
